Weather observations for the past three days for
Scappoose Industrial Airpark
Imperial (Metric)
Date Time (pdt) Wind (mph) Vis. (mi.) Weather Sky Cond. Temperature (ºF) Relative Humidity Wind Chill (°F) Heat Index (°F) Pressure Precipitation (in)
Air Dwpt 6 hour altimeter (in) sea level (mb) 1 hr 3 hr 6 hr
Max. Min.
17 22:53 N 10 10.00 Fair CLR 0 0 0% 30.03 0.0
17 21:53 N 10 10.00 Fair CLR 0 0 0% 30.02 0.0
17 20:53 N 10 10.00 Fair CLR 0 0 0% 29.99 0.0
17 19:53 N 8 10.00 Fair CLR 0 0 0% 29.98 0.0
17 18:53 N 10 10.00 Fair CLR 0 0 0% 29.98 0.0
17 17:53 N 7 10.00 Fair CLR 0 0 0% 29.97 0.0
17 16:53 Vrbl 6 10.00 Fair CLR 0 0 0% 29.97 0.0
17 15:53 E 7 10.00 Fair CLR 0 0 0% 29.98 0.0
17 14:53 S 5 10.00 Fair CLR 0 0 0% 29.99 0.0
17 13:53 Vrbl 3 10.00 Fair CLR 0 0 0% 29.99 0.0
17 12:53 Vrbl 6 10.00 Fair CLR 0 0 0% 30 0.0
17 11:53 Vrbl 6 10.00 Fair CLR 0 0 0% 30 0.0
17 10:53 Calm 10.00 Fair CLR 0 0 0% 29.99 0.0
17 09:53 Vrbl 3 10.00 Fair CLR 0 0 0% 29.99 0.0
17 08:53 E 5 10.00 Fair CLR 0 0 0% 29.99 0.0
17 07:53 N 3 10.00 Fair CLR 0 0 0% 29.99 0.0
17 06:53 E 7 10.00 Fair CLR 0 0 0% 29.99 0.0
17 05:53 W 5 10.00 Fair CLR 0 0 0% 29.94 0.0
17 04:53 E 7 10.00 Fair CLR 0 0 0% 29.92 0.0
17 03:53 Vrbl 5 10.00 A Few Clouds FEW047 FEW065 FEW110 0 0 0% 29.9 0.0
17 02:53 N 6 10.00 Fair CLR 0 0 0% 29.96 0.0
17 01:53 N 8 10.00 Fair CLR 0 0 0% 29.91 0.0
17 00:53 NW 14 10.00 Fair CLR 0 0 0% 29.87 0.0
16 23:53 W 3 10.00 Fair CLR 0 0 0% 29.89 0.0
16 22:53 W 6 10.00 Fair CLR 0 0 0% 29.85 0.0
16 21:53 NW 6 10.00 Fair CLR 0 0 0% 29.82 0.0
16 20:53 NW 6 10.00 Fair CLR 0 0 0% 29.81 0.0
16 19:53 NW 7 10.00 Fair CLR 0 0 0% 29.8 0.0
16 18:53 NW 8 10.00 Fair CLR 0 0 0% 29.82 0.0
16 17:53 NW 9 10.00 Fair CLR 0 0 0% 29.83 0.0
16 16:53 N 9 10.00 Fair CLR 0 0 0% 29.85 0.0
16 15:53 N 8 10.00 Fair CLR 0 0 0% 29.86 0.0
16 14:53 NE 7 10.00 Fair CLR 0 0 0% 29.89 0.0
16 13:53 Calm 10.00 Fair CLR 0 0 0% 29.91 0.0
16 12:53 Vrbl 6 10.00 Fair CLR 0 0 0% 29.93 0.0
16 11:53 Vrbl 3 10.00 Fair CLR 0 0 0% 29.95 0.0
16 10:53 NE 7 10.00 Fair CLR 0 0 0% 29.96 0.0
16 09:53 N 7 10.00 Fair CLR 0 0 0% 29.98 0.0
16 08:53 N 8 10.00 Fair CLR 0 0 0% 29.98 0.0
16 07:53 NE 5 10.00 Fair CLR 0 0 0% 29.99 0.0
16 06:53 N 5 10.00 Fair CLR 0 0 0% 29.98 0.0
16 05:53 Calm 10.00 Fair CLR 0 0 0% 29.98 0.0
16 04:53 Calm 10.00 Fair CLR 0 0 0% 29.98 0.0
16 03:53 Calm 10.00 Fair CLR 0 0 0% 29.97 0.0
16 02:53 Calm 10.00 Fair CLR 0 0 0% 29.97 0.0
16 01:53 Calm 10.00 Fair CLR 0 0 0% 29.97 0.0
16 00:53 N 6 10.00 Fair CLR 0 0 0% 29.98 0.0
15 23:53 N 3 10.00 Fair CLR 0 0 0% 29.98 0.0
15 22:53 Calm 10.00 Fair CLR 0 0 0% 29.98 0.0
15 21:53 NW 3 10.00 Fair CLR 0 0 0% 29.98 0.0
15 20:53 NW 5 10.00 Fair CLR 0 0 0% 29.98 0.0
15 19:53 NW 7 10.00 Fair CLR 0 0 0% 29.98 0.0
15 18:53 N 10 10.00 Fair CLR 0 0 0% 29.98 0.0
15 17:53 N 14 G 23 10.00 Fair CLR 0 0 0% 29.99 0.0
15 16:53 N 9 10.00 Fair CLR 0 0 0% 30 0.0
15 15:53 N 13 G 21 10.00 Fair CLR 0 0 0% 30.02 0.0
15 14:53 N 10 10.00 Fair CLR 0 0 0% 30.05 0.0
15 13:53 Vrbl 5 10.00 Fair CLR 0 0 0% 30.08 0.0
15 12:53 E 9 10.00 Fair CLR 0 0 0% 30.09 0.0
15 11:53 E 10 10.00 Fair CLR 0 0 0% 30.11 0.0
15 10:53 Vrbl 6 10.00 Fair CLR 0 0 0% 30.13 0.0
15 09:53 Vrbl 6 10.00 Fair CLR 0 0 0% 30.13 0.0
15 08:53 NE 8 10.00 Fair CLR 0 0 0% 30.13 0.0
15 07:53 N 7 10.00 Fair CLR 0 0 0% 30.13 0.0
15 06:53 N 5 10.00 Fair CLR 0 0 0% 30.13 0.0
15 05:53 NW 3 10.00 Fair CLR 0 0 0% 30.12 0.0
15 04:53 N 5 10.00 Fair CLR 0 0 0% 30.12 0.0
15 03:53 N 7 10.00 Fair CLR 0 0 0% 30.1 0.0
15 02:53 N 6 10.00 Fair CLR 0 0 0% 30.1 0.0
15 01:53 N 3 10.00 Fair CLR 0 0 0% 30.09 0.0
15 00:53 N 7 10.00 Fair CLR 0 0 0% 30.09 0.0
14 23:53 N 9 10.00 Fair CLR 0 0 0% 30.08 0.0
Date Time (pdt) Wind (mph) Vis. (mi.) Weather Sky Cond. Air Dwpt Max. Min. Relative Humidity Wind Chill (°F) Heat Index (°F) altimeter (in) sea level (mb) 1 hr 3 hr 6 hr
6 hour
Temperature (ºF) Pressure Precipitation (in)